Time,TemperatureF,DewpointF,PressureIn,WindDirection,WindDirectionDegrees,WindSpeedMPH,WindSpeedGustMPH,Humidity,HourlyPrecipIn,Conditions,Clouds,dailyrainin,SoftwareType,DateUTC
2013-01-03 00:03:00,1.8,-8.6,30.12,SSW,211,1.0,1.0,61,0.00,,,0.00,Wunderground v.1.15,2013-01-03 05:03:00,
2013-01-03 00:05:00,1.7,-8.7,30.12,SW,220,1.0,1.0,61,0.00,,,0.00,Wunderground v.1.15,2013-01-03 05:05:00,
2013-01-03 00:07:00,1.7,-8.3,30.12,WSW,242,0.0,1.0,62,0.00,,,0.00,Wunderground v.1.15,2013-01-03 05:07:00,
2013-01-03 00:11:00,1.7,-8.3,30.12,SE,142,0.0,1.0,62,0.00,,,0.00,Wunderground v.1.15,2013-01-03 05:11:00,
2013-01-03 00:16:00,1.7,-8.3,30.12,SE,126,0.0,0.0,62,0.00,,,0.00,Wunderground v.1.15,2013-01-03 05:16:00,
2013-01-03 00:22:00,1.5,-8.9,30.12,West,275,0.0,1.0,61,0.00,,,0.00,Wunderground v.1.15,2013-01-03 05:22:00,
2013-01-03 00:27:00,1.5,-8.2,30.12,SW,220,0.0,1.0,63,0.00,,,0.00,Wunderground v.1.15,2013-01-03 05:27:00,
2013-01-03 00:33:00,1.3,-8.4,30.12,West,272,0.0,6.0,63,0.00,,,0.00,Wunderground v.1.15,2013-01-03 05:33:00,
2013-01-03 00:38:00,1.3,-8.4,30.12,West,261,0.0,1.0,63,0.00,,,0.00,Wunderground v.1.15,2013-01-03 05:38:00,
2013-01-03 00:44:00,1.1,-8.6,30.12,SW,217,0.0,2.0,63,0.00,,,0.00,Wunderground v.1.15,2013-01-03 05:44:00,
2013-01-03 00:50:00,1.1,-8.6,30.12,SSE,163,0.0,6.0,63,0.00,,,0.00,Wunderground v.1.15,2013-01-03 05:50:00,
2013-01-03 00:55:00,1.1,-8.6,30.12,SSE,166,0.0,6.0,63,0.00,,,0.00,Wunderground v.1.15,2013-01-03 05:55:00,
2013-01-03 01:00:00,1.1,-8.6,30.12,SSE,158,0.0,1.0,63,0.00,,,0.00,Wunderground v.1.15,2013-01-03 06:00:00,
2013-01-03 01:06:00,0.9,-9.1,30.12,SSW,207,0.0,0.0,62,0.00,,,0.00,Wunderground v.1.15,2013-01-03 06:06:00,
2013-01-03 01:12:00,0.9,-9.1,30.13,SW,217,0.0,1.0,62,0.00,,,0.00,Wunderground v.1.15,2013-01-03 06:12:00,
2013-01-03 01:18:00,0.9,-8.8,30.13,WSW,255,1.0,2.0,63,0.00,,,0.00,Wunderground v.1.15,2013-01-03 06:18:00,
2013-01-03 01:24:00,0.9,-8.4,30.13,West,269,1.0,2.0,64,0.00,,,0.00,Wunderground v.1.15,2013-01-03 06:24:00,
2013-01-03 01:30:00,0.7,-8.6,30.14,WSW,242,2.0,2.0,64,0.00,,,0.00,Wunderground v.1.15,2013-01-03 06:30:00,
2013-01-03 01:36:00,0.7,-8.6,30.14,WSW,242,0.0,1.0,64,0.00,,,0.00,Wunderground v.1.15,2013-01-03 06:36:00,
2013-01-03 01:41:00,0.7,-8.6,30.14,WSW,237,0.0,1.0,64,0.00,,,0.00,Wunderground v.1.15,2013-01-03 06:41:00,
2013-01-03 01:46:00,0.7,-9.0,30.14,West,270,0.0,0.0,63,0.00,,,0.00,Wunderground v.1.15,2013-01-03 06:46:00,
2013-01-03 01:52:00,0.5,-9.5,30.14,West,270,0.0,0.0,62,0.00,,,0.00,Wunderground v.1.15,2013-01-03 06:52:00,
2013-01-03 01:58:00,0.7,-9.3,30.15,WNW,287,0.0,0.0,62,0.00,,,0.00,Wunderground v.1.15,2013-01-03 06:58:00,
2013-01-03 02:03:00,0.7,-9.0,30.15,WNW,287,0.0,1.0,63,0.00,,,0.00,Wunderground v.1.15,2013-01-03 07:03:00,
2013-01-03 02:08:00,0.7,-9.6,30.15,West,262,1.0,1.0,61,0.00,,,0.00,Wunderground v.1.15,2013-01-03 07:08:00,
2013-01-03 02:13:00,0.7,-9.3,30.14,WNW,289,0.0,1.0,62,0.00,,,0.00,Wunderground v.1.15,2013-01-03 07:13:00,
2013-01-03 02:18:00,0.7,-9.6,30.14,WNW,289,1.0,1.0,61,0.00,,,0.00,Wunderground v.1.15,2013-01-03 07:18:00,
2013-01-03 02:23:00,0.7,-10.0,30.14,West,272,1.0,2.0,60,0.00,,,0.00,Wunderground v.1.15,2013-01-03 07:23:00,
2013-01-03 02:29:00,0.9,-9.8,30.14,West,278,1.0,1.0,60,0.00,,,0.00,Wunderground v.1.15,2013-01-03 07:29:00,
2013-01-03 02:34:00,0.9,-9.4,30.14,West,276,0.0,1.0,61,0.00,,,0.00,Wunderground v.1.15,2013-01-03 07:34:00,
2013-01-03 02:39:00,0.9,-9.1,30.14,West,276,0.0,0.0,62,0.00,,,0.00,Wunderground v.1.15,2013-01-03 07:39:00,
2013-01-03 02:44:00,0.7,-9.0,30.13,West,276,0.0,0.0,63,0.00,,,0.00,Wunderground v.1.15,2013-01-03 07:44:00,
2013-01-03 02:50:00,0.7,-9.0,30.13,West,276,0.0,0.0,63,0.00,,,0.00,Wunderground v.1.15,2013-01-03 07:50:00,
2013-01-03 02:55:00,0.7,-9.0,30.13,West,276,0.0,0.0,63,0.00,,,0.00,Wunderground v.1.15,2013-01-03 07:55:00,
2013-01-03 03:00:00,0.7,-9.6,30.13,West,273,0.0,0.0,61,0.00,,,0.00,Wunderground v.1.15,2013-01-03 08:00:00,
2013-01-03 03:05:00,0.5,-9.8,30.13,West,273,0.0,1.0,61,0.00,,,0.00,Wunderground v.1.15,2013-01-03 08:05:00,
2013-01-03 03:10:00,0.5,-10.1,30.13,West,273,0.0,0.0,60,0.00,,,0.00,Wunderground v.1.15,2013-01-03 08:10:00,
2013-01-03 03:15:00,0.5,-10.1,30.14,ESE,104,0.0,1.0,60,0.00,,,0.00,Wunderground v.1.15,2013-01-03 08:15:00,
2013-01-03 03:20:00,0.5,-9.5,30.14,ESE,104,0.0,0.0,62,0.00,,,0.00,Wunderground v.1.15,2013-01-03 08:20:00,
2013-01-03 03:25:00,0.5,-9.1,30.14,SSW,197,1.0,1.0,63,0.00,,,0.00,Wunderground v.1.15,2013-01-03 08:25:00,
2013-01-03 03:31:00,0.5,-8.8,30.13,SSW,210,0.0,1.0,64,0.00,,,0.00,Wunderground v.1.15,2013-01-03 08:31:00,
2013-01-03 03:36:00,0.5,-8.8,30.13,SSW,210,1.0,1.0,64,0.00,,,0.00,Wunderground v.1.15,2013-01-03 08:36:00,
2013-01-03 03:41:00,0.5,-8.8,30.13,SW,220,1.0,1.0,64,0.00,,,0.00,Wunderground v.1.15,2013-01-03 08:41:00,
2013-01-03 03:46:00,0.5,-9.5,30.13,SW,221,0.0,0.0,62,0.00,,,0.00,Wunderground v.1.15,2013-01-03 08:46:00,
2013-01-03 03:51:00,0.5,-9.5,30.13,SW,221,0.0,0.0,62,0.00,,,0.00,Wunderground v.1.15,2013-01-03 08:51:00,
2013-01-03 03:57:00,0.7,-9.3,30.12,WSW,258,1.0,1.0,62,0.00,,,0.00,Wunderground v.1.15,2013-01-03 08:57:00,
2013-01-03 04:02:00,0.7,-9.3,30.12,WSW,258,0.0,1.0,62,0.00,,,0.00,Wunderground v.1.15,2013-01-03 09:02:00,
2013-01-03 04:07:00,0.7,-9.0,30.12,WSW,254,0.0,0.0,63,0.00,,,0.00,Wunderground v.1.15,2013-01-03 09:07:00,
2013-01-03 04:12:00,0.7,-9.6,30.12,NW,313,0.0,1.0,61,0.00,,,0.00,Wunderground v.1.15,2013-01-03 09:12:00,
2013-01-03 04:17:00,0.7,-9.6,30.12,NW,321,0.0,0.0,61,0.00,,,0.00,Wunderground v.1.15,2013-01-03 09:17:00,
2013-01-03 04:22:00,0.7,-10.0,30.12,NW,321,0.0,0.0,60,0.00,,,0.00,Wunderground v.1.15,2013-01-03 09:22:00,
2013-01-03 04:27:00,0.7,-10.3,30.11,NW,321,0.0,0.0,59,0.00,,,0.00,Wunderground v.1.15,2013-01-03 09:27:00,
2013-01-03 04:33:00,0.7,-10.3,30.11,NW,321,0.0,0.0,59,0.00,,,0.00,Wunderground v.1.15,2013-01-03 09:33:00,
2013-01-03 04:38:00,0.7,-10.0,30.11,NW,321,0.0,0.0,60,0.00,,,0.00,Wunderground v.1.15,2013-01-03 09:38:00,
2013-01-03 04:43:00,0.7,-9.6,30.11,SSE,165,0.0,1.0,61,0.00,,,0.00,Wunderground v.1.15,2013-01-03 09:43:00,
2013-01-03 04:48:00,0.7,-9.6,30.11,SSE,165,0.0,0.0,61,0.00,,,0.00,Wunderground v.1.15,2013-01-03 09:48:00,
2013-01-03 04:53:00,0.7,-9.6,30.11,SSE,165,0.0,0.0,61,0.00,,,0.00,Wunderground v.1.15,2013-01-03 09:53:00,
2013-01-03 04:58:00,0.5,-9.8,30.11,SSE,165,0.0,0.0,61,0.00,,,0.00,Wunderground v.1.15,2013-01-03 09:58:00,
2013-01-03 05:04:00,0.5,-9.8,30.11,SSE,165,0.0,0.0,61,0.00,,,0.00,Wunderground v.1.15,2013-01-03 10:04:00,
2013-01-03 05:09:00,0.3,-10.0,30.11,SSE,165,0.0,0.0,61,0.00,,,0.00,Wunderground v.1.15,2013-01-03 10:09:00,
2013-01-03 05:14:00,0.3,-9.7,30.11,SSE,165,0.0,1.0,62,0.00,,,0.00,Wunderground v.1.15,2013-01-03 10:14:00,
2013-01-03 05:19:00,0.3,-9.7,30.11,SSE,165,0.0,0.0,62,0.00,,,0.00,Wunderground v.1.15,2013-01-03 10:19:00,
2013-01-03 05:24:00,0.3,-9.3,30.11,SSE,165,0.0,0.0,63,0.00,,,0.00,Wunderground v.1.15,2013-01-03 10:24:00,
2013-01-03 05:29:00,0.1,-9.5,30.11,SSE,165,0.0,0.0,63,0.00,,,0.00,Wunderground v.1.15,2013-01-03 10:29:00,
2013-01-03 05:34:00,0.1,-9.5,30.11,SSE,165,0.0,0.0,63,0.00,,,0.00,Wunderground v.1.15,2013-01-03 10:34:00,
2013-01-03 05:39:00,0.1,-9.5,30.11,SSE,165,0.0,0.0,63,0.00,,,0.00,Wunderground v.1.15,2013-01-03 10:39:00,
2013-01-03 05:44:00,0.1,-9.5,30.11,SSE,165,0.0,0.0,63,0.00,,,0.00,Wunderground v.1.15,2013-01-03 10:44:00,
2013-01-03 05:50:00,0.0,-9.3,30.11,SSE,165,0.0,0.0,64,0.00,,,0.00,Wunderground v.1.15,2013-01-03 10:50:00,
2013-01-03 05:55:00,0.0,-9.3,30.11,SSE,165,0.0,0.0,64,0.00,,,0.00,Wunderground v.1.15,2013-01-03 10:55:00,
2013-01-03 06:00:00,0.0,-9.3,30.11,SSE,165,0.0,1.0,64,0.00,,,0.00,Wunderground v.1.15,2013-01-03 11:00:00,
2013-01-03 06:05:00,0.0,-9.0,30.11,SSE,165,0.0,1.0,65,0.00,,,0.00,Wunderground v.1.15,2013-01-03 11:05:00,
2013-01-03 06:10:00,0.0,-9.0,30.11,South,183,0.0,0.0,65,0.00,,,0.00,Wunderground v.1.15,2013-01-03 11:10:00,
2013-01-03 06:15:00,0.0,-9.0,30.11,South,183,0.0,1.0,65,0.00,,,0.00,Wunderground v.1.15,2013-01-03 11:15:00,
2013-01-03 06:20:00,0.1,-8.9,30.11,South,183,0.0,1.0,65,0.00,,,0.00,Wunderground v.1.15,2013-01-03 11:20:00,
2013-01-03 06:25:00,0.3,-8.7,30.11,South,183,1.0,1.0,65,0.00,,,0.00,Wunderground v.1.15,2013-01-03 11:25:00,
2013-01-03 06:31:00,0.3,-9.0,30.11,South,169,0.0,0.0,64,0.00,,,0.00,Wunderground v.1.15,2013-01-03 11:31:00,
2013-01-03 06:36:00,0.3,-9.0,30.11,South,169,0.0,0.0,64,0.00,,,0.00,Wunderground v.1.15,2013-01-03 11:36:00,
2013-01-03 06:41:00,0.3,-9.0,30.12,South,169,0.0,1.0,64,0.00,,,0.00,Wunderground v.1.15,2013-01-03 11:41:00,
2013-01-03 06:46:00,0.5,-9.1,30.12,South,169,0.0,0.0,63,0.00,,,0.00,Wunderground v.1.15,2013-01-03 11:46:00,
2013-01-03 06:51:00,0.7,-8.6,30.12,South,169,0.0,1.0,64,0.00,,,0.00,Wunderground v.1.15,2013-01-03 11:51:00,
2013-01-03 06:56:00,0.7,-9.3,30.12,WNW,299,0.0,1.0,62,0.00,,,0.00,Wunderground v.1.15,2013-01-03 11:56:00,
2013-01-03 07:02:00,0.9,-9.1,30.12,WNW,299,1.0,2.0,62,0.00,,,0.00,Wunderground v.1.15,2013-01-03 12:02:00,
2013-01-03 07:07:00,1.1,-9.2,30.12,West,280,0.0,1.0,61,0.00,,,0.00,Wunderground v.1.15,2013-01-03 12:07:00,
2013-01-03 07:13:00,1.3,-9.4,30.12,West,278,0.0,2.0,60,0.00,,,0.00,Wunderground v.1.15,2013-01-03 12:13:00,
2013-01-03 07:18:00,1.3,-9.7,30.12,West,276,0.0,1.0,59,0.00,,,0.00,Wunderground v.1.15,2013-01-03 12:18:00,
2013-01-03 07:23:00,1.3,-9.7,30.12,West,276,0.0,1.0,59,0.00,,,0.00,Wunderground v.1.15,2013-01-03 12:23:00,
2013-01-03 07:28:00,1.3,-9.4,30.12,WNW,283,0.0,1.0,60,0.00,,,0.00,Wunderground v.1.15,2013-01-03 12:28:00,
2013-01-03 07:33:00,1.3,-9.0,30.12,WNW,283,1.0,1.0,61,0.00,,,0.00,Wunderground v.1.15,2013-01-03 12:33:00,
2013-01-03 07:38:00,1.3,-8.7,30.12,WNW,283,1.0,2.0,62,0.00,,,0.00,Wunderground v.1.15,2013-01-03 12:38:00,
2013-01-03 07:43:00,1.3,-9.4,30.13,WNW,283,1.0,2.0,60,0.00,,,0.00,Wunderground v.1.15,2013-01-03 12:43:00,
2013-01-03 07:48:00,1.3,-9.4,30.13,West,262,0.0,0.0,60,0.00,,,0.00,Wunderground v.1.15,2013-01-03 12:48:00,
2013-01-03 07:53:00,1.3,-9.4,30.13,West,262,0.0,1.0,60,0.00,,,0.00,Wunderground v.1.15,2013-01-03 12:53:00,
2013-01-03 07:59:00,1.3,-9.0,30.12,West,266,0.0,1.0,61,0.00,,,0.00,Wunderground v.1.15,2013-01-03 12:59:00,
2013-01-03 08:04:00,1.3,-9.4,30.12,West,266,0.0,1.0,60,0.00,,,0.00,Wunderground v.1.15,2013-01-03 13:04:00,
2013-01-03 08:09:00,1.3,-9.4,30.12,West,266,0.0,0.0,60,0.00,,,0.00,Wunderground v.1.15,2013-01-03 13:09:00,
2013-01-03 08:14:00,1.3,-9.4,30.12,West,265,0.0,1.0,60,0.00,,,0.00,Wunderground v.1.15,2013-01-03 13:14:00,
2013-01-03 08:20:00,1.5,-8.9,30.12,West,268,0.0,0.0,61,0.00,,,0.00,Wunderground v.1.15,2013-01-03 13:20:00,
2013-01-03 08:25:00,1.5,-8.9,30.12,West,268,1.0,1.0,61,0.00,,,0.00,Wunderground v.1.15,2013-01-03 13:25:00,
2013-01-03 08:30:00,1.5,-8.5,30.11,West,268,0.0,0.0,62,0.00,,,0.00,Wunderground v.1.15,2013-01-03 13:30:00,
2013-01-03 08:35:00,1.7,-8.3,30.11,West,268,0.0,0.0,62,0.00,,,0.00,Wunderground v.1.15,2013-01-03 13:35:00,
2013-01-03 08:40:00,1.7,-8.3,30.11,West,268,0.0,1.0,62,0.00,,,0.00,Wunderground v.1.15,2013-01-03 13:40:00,
2013-01-03 08:45:00,1.8,-8.2,30.12,West,268,0.0,1.0,62,0.00,,,0.00,Wunderground v.1.15,2013-01-03 13:45:00,
2013-01-03 08:50:00,2.0,-8.0,30.12,West,268,0.0,0.0,62,0.00,,,0.00,Wunderground v.1.15,2013-01-03 13:50:00,
2013-01-03 08:55:00,2.0,-8.0,30.12,West,268,0.0,0.0,62,0.00,,,0.00,Wunderground v.1.15,2013-01-03 13:55:00,
2013-01-03 09:00:00,2.0,-8.4,30.12,West,268,0.0,0.0,61,0.00,,,0.00,Wunderground v.1.15,2013-01-03 14:00:00,
2013-01-03 09:06:00,2.2,-8.2,30.12,West,268,0.0,0.0,61,0.00,,,0.00,Wunderground v.1.15,2013-01-03 14:06:00,
2013-01-03 09:11:00,2.6,-8.1,30.12,West,268,0.0,0.0,60,0.00,,,0.00,Wunderground v.1.15,2013-01-03 14:11:00,
2013-01-03 09:16:00,3.0,-7.8,30.11,SSW,211,0.0,1.0,60,0.00,,,0.00,Wunderground v.1.15,2013-01-03 14:16:00,
2013-01-03 09:21:00,3.4,-7.4,30.11,West,268,0.0,1.0,60,0.00,,,0.00,Wunderground v.1.15,2013-01-03 14:21:00,
2013-01-03 09:26:00,3.7,-7.1,30.11,West,269,0.0,0.0,60,0.00,,,0.00,Wunderground v.1.15,2013-01-03 14:26:00,
2013-01-03 09:31:00,4.1,-6.7,30.11,West,269,0.0,2.0,60,0.00,,,0.00,Wunderground v.1.15,2013-01-03 14:31:00,
2013-01-03 09:36:00,5.0,-6.2,30.11,SW,222,0.0,0.0,59,0.00,,,0.00,Wunderground v.1.15,2013-01-03 14:36:00,
2013-01-03 09:41:00,5.8,-5.5,30.11,SW,222,0.0,1.0,59,0.00,,,0.00,Wunderground v.1.15,2013-01-03 14:41:00,
2013-01-03 09:46:00,6.1,-5.5,30.11,SW,222,0.0,0.0,58,0.00,,,0.00,Wunderground v.1.15,2013-01-03 14:46:00,
2013-01-03 09:51:00,6.1,-5.9,30.11,South,184,0.0,1.0,57,0.00,,,0.00,Wunderground v.1.15,2013-01-03 14:51:00,
2013-01-03 09:56:00,6.5,-5.9,30.12,SSW,197,0.0,0.0,56,0.00,,,0.00,Wunderground v.1.15,2013-01-03 14:56:00,
2013-01-03 10:02:00,6.9,-5.9,30.12,SSW,197,0.0,0.0,55,0.00,,,0.00,Wunderground v.1.15,2013-01-03 15:02:00,
2013-01-03 10:07:00,7.4,-5.8,30.12,SSW,197,0.0,0.0,54,0.00,,,0.00,Wunderground v.1.15,2013-01-03 15:07:00,
2013-01-03 10:12:00,7.6,-5.6,30.11,SSW,197,0.0,0.0,54,0.00,,,0.00,Wunderground v.1.15,2013-01-03 15:12:00,
2013-01-03 10:17:00,8.1,-5.1,30.11,WSW,258,0.0,1.0,54,0.00,,,0.00,Wunderground v.1.15,2013-01-03 15:17:00,
2013-01-03 10:22:00,8.4,-5.6,30.11,WSW,258,0.0,1.0,52,0.00,,,0.00,Wunderground v.1.15,2013-01-03 15:22:00,
2013-01-03 10:27:00,9.0,-5.9,30.11,WNW,286,2.0,2.0,50,0.00,,,0.00,Wunderground v.1.15,2013-01-03 15:27:00,
2013-01-03 10:33:00,9.5,-5.0,30.11,West,279,0.0,2.0,51,0.00,,,0.00,Wunderground v.1.15,2013-01-03 15:33:00,
2013-01-03 10:38:00,9.7,-4.4,30.11,West,279,0.0,0.0,52,0.00,,,0.00,Wunderground v.1.15,2013-01-03 15:38:00,
2013-01-03 10:43:00,10.0,-3.4,30.10,West,279,1.0,1.0,54,0.00,,,0.00,Wunderground v.1.15,2013-01-03 15:43:00,
2013-01-03 10:48:00,10.2,-3.2,30.10,WSW,244,1.0,2.0,54,0.00,,,0.00,Wunderground v.1.15,2013-01-03 15:48:00,
2013-01-03 10:53:00,10.5,-3.3,30.10,SW,227,1.0,2.0,53,0.00,,,0.00,Wunderground v.1.15,2013-01-03 15:53:00,
2013-01-03 10:58:00,10.9,-3.7,30.10,SW,227,1.0,1.0,51,0.00,,,0.00,Wunderground v.1.15,2013-01-03 15:58:00,
2013-01-03 11:03:00,11.2,-4.3,30.10,WSW,256,1.0,2.0,49,0.00,,,0.00,Wunderground v.1.15,2013-01-03 16:03:00,
2013-01-03 11:09:00,11.6,-2.3,30.10,WSW,255,0.0,2.0,53,0.00,,,0.00,Wunderground v.1.15,2013-01-03 16:09:00,
2013-01-03 11:14:00,11.9,-1.6,30.09,West,259,1.0,2.0,54,0.00,,,0.00,Wunderground v.1.15,2013-01-03 16:14:00,
2013-01-03 11:19:00,12.4,-1.9,30.09,WNW,282,1.0,2.0,52,0.00,,,0.00,Wunderground v.1.15,2013-01-03 16:19:00,
2013-01-03 11:25:00,13.3,-1.5,30.09,WNW,282,0.0,2.0,51,0.00,,,0.00,Wunderground v.1.15,2013-01-03 16:25:00,
2013-01-03 11:30:00,13.8,-1.4,30.09,WNW,282,0.0,1.0,50,0.00,,,0.00,Wunderground v.1.15,2013-01-03 16:30:00,
2013-01-03 11:35:00,14.0,-1.3,30.09,WNW,282,0.0,1.0,50,0.00,,,0.00,Wunderground v.1.15,2013-01-03 16:35:00,
2013-01-03 11:40:00,14.3,-0.6,30.09,WNW,282,1.0,1.0,51,0.00,,,0.00,Wunderground v.1.15,2013-01-03 16:40:00,
2013-01-03 11:45:00,14.4,-0.9,30.08,SW,222,0.0,2.0,50,0.00,,,0.00,Wunderground v.1.15,2013-01-03 16:45:00,
2013-01-03 11:50:00,14.4,-3.1,30.08,WNW,286,1.0,4.0,45,0.00,,,0.00,Wunderground v.1.15,2013-01-03 16:50:00,
2013-01-03 11:55:00,14.3,-1.0,30.08,East,94,1.0,4.0,50,0.00,,,0.00,Wunderground v.1.15,2013-01-03 16:55:00,
2013-01-03 12:00:00,14.3,-1.4,30.07,West,276,1.0,2.0,49,0.00,,,0.00,Wunderground v.1.15,2013-01-03 17:00:00,
2013-01-03 12:05:00,14.3,-1.0,30.07,West,272,1.0,2.0,50,0.00,,,0.00,Wunderground v.1.15,2013-01-03 17:05:00,
2013-01-03 12:11:00,14.6,-1.1,30.07,West,276,2.0,2.0,49,0.00,,,0.00,Wunderground v.1.15,2013-01-03 17:11:00,
2013-01-03 12:16:00,14.6,-1.6,30.07,West,278,1.0,4.0,48,0.00,,,0.00,Wunderground v.1.15,2013-01-03 17:16:00,
2013-01-03 12:21:00,14.6,-2.0,30.07,SW,234,1.0,2.0,47,0.00,,,0.00,Wunderground v.1.15,2013-01-03 17:21:00,
2013-01-03 12:26:00,14.6,-0.7,30.07,SW,234,1.0,1.0,50,0.00,,,0.00,Wunderground v.1.15,2013-01-03 17:26:00,
2013-01-03 12:31:00,14.6,-1.1,30.07,WSW,238,0.0,2.0,49,0.00,,,0.00,Wunderground v.1.15,2013-01-03 17:31:00,
2013-01-03 12:36:00,14.8,-0.5,30.07,WSW,238,0.0,1.0,50,0.00,,,0.00,Wunderground v.1.15,2013-01-03 17:36:00,
2013-01-03 12:41:00,14.9,0.4,30.06,WNW,290,0.0,1.0,52,0.00,,,0.00,Wunderground v.1.15,2013-01-03 17:41:00,
2013-01-03 12:46:00,15.1,-0.7,30.06,SW,224,0.0,1.0,49,0.00,,,0.00,Wunderground v.1.15,2013-01-03 17:46:00,
2013-01-03 12:52:00,15.1,-2.5,30.06,SW,228,1.0,1.0,45,0.00,,,0.00,Wunderground v.1.15,2013-01-03 17:52:00,
2013-01-03 12:57:00,15.1,-1.1,30.06,South,183,1.0,1.0,48,0.00,,,0.00,Wunderground v.1.15,2013-01-03 17:57:00,
2013-01-03 13:02:00,15.1,-0.2,30.06,SSW,201,0.0,2.0,50,0.00,,,0.00,Wunderground v.1.15,2013-01-03 18:02:00,
2013-01-03 13:07:00,15.1,-0.7,30.06,WSW,239,0.0,2.0,49,0.00,,,0.00,Wunderground v.1.15,2013-01-03 18:07:00,
2013-01-03 13:12:00,15.1,-1.5,30.05,WSW,241,0.0,2.0,47,0.00,,,0.00,Wunderground v.1.15,2013-01-03 18:12:00,
2013-01-03 13:17:00,15.1,-0.2,30.05,West,259,0.0,2.0,50,0.00,,,0.00,Wunderground v.1.15,2013-01-03 18:17:00,
2013-01-03 13:22:00,15.1,-3.9,30.05,West,269,1.0,4.0,42,0.00,,,0.00,Wunderground v.1.15,2013-01-03 18:22:00,
2013-01-03 13:28:00,15.1,-2.0,30.05,West,272,0.0,1.0,46,0.00,,,0.00,Wunderground v.1.15,2013-01-03 18:28:00,
2013-01-03 13:33:00,15.1,-2.5,30.05,West,272,1.0,1.0,45,0.00,,,0.00,Wunderground v.1.15,2013-01-03 18:33:00,
2013-01-03 13:38:00,15.2,-0.6,30.05,West,272,0.0,0.0,49,0.00,,,0.00,Wunderground v.1.15,2013-01-03 18:38:00,
2013-01-03 13:43:00,15.2,-1.5,30.04,West,273,0.0,1.0,47,0.00,,,0.00,Wunderground v.1.15,2013-01-03 18:43:00,
2013-01-03 13:48:00,15.2,-0.6,30.04,West,273,0.0,1.0,49,0.00,,,0.00,Wunderground v.1.15,2013-01-03 18:48:00,
2013-01-03 13:53:00,15.2,-2.4,30.04,West,273,0.0,1.0,45,0.00,,,0.00,Wunderground v.1.15,2013-01-03 18:53:00,
2013-01-03 13:58:00,15.4,-1.3,30.04,West,273,0.0,1.0,47,0.00,,,0.00,Wunderground v.1.15,2013-01-03 18:58:00,
2013-01-03 14:03:00,15.4,-3.1,30.04,West,273,0.0,1.0,43,0.00,,,0.00,Wunderground v.1.15,2013-01-03 19:03:00,
2013-01-03 14:08:00,15.4,-1.7,30.04,West,273,0.0,0.0,46,0.00,,,0.00,Wunderground v.1.15,2013-01-03 19:08:00,
2013-01-03 14:13:00,15.4,-1.7,30.03,West,273,0.0,0.0,46,0.00,,,0.00,Wunderground v.1.15,2013-01-03 19:13:00,
2013-01-03 14:18:00,15.4,-2.2,30.03,West,273,0.0,0.0,45,0.00,,,0.00,Wunderground v.1.15,2013-01-03 19:18:00,
2013-01-03 14:52:00,15.9,1.8,30.02,West,276,1.0,1.0,53,0.00,,,0.00,Wunderground v.1.15,2013-01-03 19:52:00,
2013-01-03 14:57:00,15.9,1.8,30.01,WSW,245,0.0,1.0,53,0.00,,,0.00,Wunderground v.1.15,2013-01-03 19:57:00,
2013-01-03 15:02:00,16.1,0.3,30.01,WSW,245,0.0,1.0,49,0.00,,,0.00,Wunderground v.1.15,2013-01-03 20:02:00,
2013-01-03 15:07:00,16.1,1.1,30.01,WSW,245,0.0,1.0,51,0.00,,,0.00,Wunderground v.1.15,2013-01-03 20:07:00,
2013-01-03 15:13:00,16.1,0.3,30.02,WSW,244,0.0,1.0,49,0.00,,,0.00,Wunderground v.1.15,2013-01-03 20:13:00,
2013-01-03 15:18:00,16.1,0.7,30.02,WSW,244,0.0,0.0,50,0.00,,,0.00,Wunderground v.1.15,2013-01-03 20:18:00,
2013-01-03 15:23:00,16.1,0.3,30.02,WSW,244,0.0,0.0,49,0.00,,,0.00,Wunderground v.1.15,2013-01-03 20:23:00,
2013-01-03 15:28:00,16.1,-1.5,30.01,WSW,244,0.0,0.0,45,0.00,,,0.00,Wunderground v.1.15,2013-01-03 20:28:00,
2013-01-03 15:34:00,16.1,-1.5,30.01,WSW,244,0.0,0.0,45,0.00,,,0.00,Wunderground v.1.15,2013-01-03 20:34:00,
2013-01-03 15:39:00,16.2,-1.5,30.01,WSW,244,0.0,0.0,45,0.00,,,0.00,Wunderground v.1.15,2013-01-03 20:39:00,
2013-01-03 15:44:00,16.2,-1.5,30.01,WSW,244,0.0,0.0,45,0.00,,,0.00,Wunderground v.1.15,2013-01-03 20:44:00,
2013-01-03 15:49:00,16.2,-1.5,30.01,WSW,244,0.0,0.0,45,0.00,,,0.00,Wunderground v.1.15,2013-01-03 20:49:00,
2013-01-03 15:54:00,16.2,-1.5,30.01,WSW,244,0.0,0.0,45,0.00,,,0.00,Wunderground v.1.15,2013-01-03 20:54:00,
2013-01-03 16:00:00,16.2,-1.0,30.01,SSE,150,0.0,1.0,46,0.00,,,0.00,Wunderground v.1.15,2013-01-03 21:00:00,
2013-01-03 16:05:00,16.1,-2.0,30.01,SSE,150,0.0,1.0,44,0.00,,,0.00,Wunderground v.1.15,2013-01-03 21:05:00,
2013-01-03 16:10:00,16.1,-1.5,30.01,SSE,150,0.0,0.0,45,0.00,,,0.00,Wunderground v.1.15,2013-01-03 21:10:00,
2013-01-03 16:15:00,16.1,-1.1,30.01,SSE,150,0.0,0.0,46,0.00,,,0.00,Wunderground v.1.15,2013-01-03 21:15:00,
2013-01-03 16:20:00,15.9,-0.8,30.01,SSE,150,0.0,0.0,47,0.00,,,0.00,Wunderground v.1.15,2013-01-03 21:20:00,
2013-01-03 16:25:00,15.7,-0.5,30.01,SSE,150,0.0,0.0,48,0.00,,,0.00,Wunderground v.1.15,2013-01-03 21:25:00,
2013-01-03 16:30:00,15.4,0.5,30.01,SSE,150,0.0,0.0,51,0.00,,,0.00,Wunderground v.1.15,2013-01-03 21:30:00,
2013-01-03 16:35:00,14.9,0.8,30.01,SSE,150,0.0,0.0,53,0.00,,,0.00,Wunderground v.1.15,2013-01-03 21:35:00,
2013-01-03 16:40:00,14.4,1.5,30.01,SSE,150,0.0,0.0,56,0.00,,,0.00,Wunderground v.1.15,2013-01-03 21:40:00,
2013-01-03 16:45:00,14.0,0.8,30.00,SSE,150,0.0,0.0,55,0.00,,,0.00,Wunderground v.1.15,2013-01-03 21:45:00,
2013-01-03 16:50:00,13.5,0.3,30.00,SSE,150,0.0,0.0,55,0.00,,,0.00,Wunderground v.1.15,2013-01-03 21:50:00,
2013-01-03 16:56:00,13.1,-0.9,30.00,SSE,150,0.0,0.0,53,0.00,,,0.00,Wunderground v.1.15,2013-01-03 21:56:00,
2013-01-03 17:01:00,12.8,-1.1,30.01,SSE,150,0.0,0.0,53,0.00,,,0.00,Wunderground v.1.15,2013-01-03 22:01:00,
2013-01-03 17:06:00,12.6,-1.3,30.01,SSE,150,0.0,0.0,53,0.00,,,0.00,Wunderground v.1.15,2013-01-03 22:06:00,
2013-01-03 17:11:00,12.3,-0.1,30.01,SSE,150,0.0,0.0,57,0.00,,,0.00,Wunderground v.1.15,2013-01-03 22:11:00,
2013-01-03 17:16:00,11.9,-0.8,30.01,SSE,150,0.0,0.0,56,0.00,,,0.00,Wunderground v.1.15,2013-01-03 22:16:00,
2013-01-03 17:22:00,11.6,-1.1,30.01,SSE,150,0.0,0.0,56,0.00,,,0.00,Wunderground v.1.15,2013-01-03 22:22:00,
2013-01-03 17:27:00,11.4,-0.9,30.02,SSE,150,0.0,0.0,57,0.00,,,0.00,Wunderground v.1.15,2013-01-03 22:27:00,
2013-01-03 17:32:00,11.1,-0.8,30.02,SSE,150,0.0,0.0,58,0.00,,,0.00,Wunderground v.1.15,2013-01-03 22:32:00,
2013-01-03 17:37:00,10.7,-0.5,30.02,SSE,150,0.0,0.0,60,0.00,,,0.00,Wunderground v.1.15,2013-01-03 22:37:00,
2013-01-03 17:42:00,10.4,-0.4,30.02,SSE,150,0.0,0.0,61,0.00,,,0.00,Wunderground v.1.15,2013-01-03 22:42:00,
2013-01-03 17:47:00,10.0,-1.9,30.02,SSE,150,0.0,0.0,58,0.00,,,0.00,Wunderground v.1.15,2013-01-03 22:47:00,
2013-01-03 17:53:00,10.0,-1.9,30.02,SSE,150,0.0,0.0,58,0.00,,,0.00,Wunderground v.1.15,2013-01-03 22:53:00,
2013-01-03 17:58:00,9.9,-2.3,30.02,SSE,150,0.0,0.0,57,0.00,,,0.00,Wunderground v.1.15,2013-01-03 22:58:00,
2013-01-03 18:03:00,9.7,-2.1,30.02,SSE,150,0.0,0.0,58,0.00,,,0.00,Wunderground v.1.15,2013-01-03 23:03:00,
2013-01-03 18:08:00,9.5,-2.3,30.02,SSE,150,0.0,0.0,58,0.00,,,0.00,Wunderground v.1.15,2013-01-03 23:08:00,
2013-01-03 18:13:00,9.5,-2.0,30.02,SSE,150,0.0,0.0,59,0.00,,,0.00,Wunderground v.1.15,2013-01-03 23:13:00,
2013-01-03 18:18:00,9.2,-1.9,30.02,SSE,150,0.0,0.0,60,0.00,,,0.00,Wunderground v.1.15,2013-01-03 23:18:00,
2013-01-03 18:23:00,9.0,-2.1,30.02,SSE,150,0.0,0.0,60,0.00,,,0.00,Wunderground v.1.15,2013-01-03 23:23:00,
2013-01-03 18:28:00,8.8,-2.6,30.02,SSE,150,0.0,0.0,59,0.00,,,0.00,Wunderground v.1.15,2013-01-03 23:28:00,
2013-01-03 18:34:00,8.8,-2.3,30.02,SSE,150,0.0,0.0,60,0.00,,,0.00,Wunderground v.1.15,2013-01-03 23:34:00,
2013-01-03 18:39:00,8.6,-2.1,30.02,SSE,150,0.0,0.0,61,0.00,,,0.00,Wunderground v.1.15,2013-01-03 23:39:00,
2013-01-03 18:44:00,8.6,-2.1,30.02,SSE,150,0.0,0.0,61,0.00,,,0.00,Wunderground v.1.15,2013-01-03 23:44:00,
2013-01-03 18:49:00,8.6,-2.1,30.02,SSE,150,0.0,0.0,61,0.00,,,0.00,Wunderground v.1.15,2013-01-03 23:49:00,
2013-01-03 18:55:00,8.6,-1.1,30.02,SSE,150,0.0,0.0,64,0.00,,,0.00,Wunderground v.1.15,2013-01-03 23:55:00,
2013-01-03 19:00:00,8.6,-2.1,30.03,SSE,150,0.0,0.0,61,0.00,,,0.00,Wunderground v.1.15,2013-01-04 00:00:00,
2013-01-03 19:05:00,8.6,-2.1,30.03,SSE,150,0.0,0.0,61,0.00,,,0.00,Wunderground v.1.15,2013-01-04 00:05:00,
2013-01-03 19:10:00,8.6,-1.1,30.03,SSE,150,0.0,0.0,64,0.00,,,0.00,Wunderground v.1.15,2013-01-04 00:10:00,
2013-01-03 19:15:00,8.6,-0.8,30.03,SSE,150,0.0,0.0,65,0.00,,,0.00,Wunderground v.1.15,2013-01-04 00:15:00,
2013-01-03 19:21:00,8.8,-0.6,30.03,SSE,150,0.0,0.0,65,0.00,,,0.00,Wunderground v.1.15,2013-01-04 00:21:00,
2013-01-03 19:26:00,8.8,-0.3,30.03,SSE,150,0.0,0.0,66,0.00,,,0.00,Wunderground v.1.15,2013-01-04 00:26:00,
2013-01-03 19:31:00,8.8,0.1,30.03,SSE,150,0.0,0.0,67,0.00,,,0.00,Wunderground v.1.15,2013-01-04 00:31:00,
2013-01-03 19:36:00,8.8,0.1,30.03,SSE,150,0.0,0.0,67,0.00,,,0.00,Wunderground v.1.15,2013-01-04 00:36:00,
2013-01-03 19:41:00,8.8,0.1,30.02,SSE,150,0.0,0.0,67,0.00,,,0.00,Wunderground v.1.15,2013-01-04 00:41:00,
2013-01-03 19:46:00,8.8,-0.3,30.02,SSE,150,0.0,0.0,66,0.00,,,0.00,Wunderground v.1.15,2013-01-04 00:46:00,
2013-01-03 19:51:00,8.6,-1.1,30.02,SSE,150,0.0,0.0,64,0.00,,,0.00,Wunderground v.1.15,2013-01-04 00:51:00,
2013-01-03 19:56:00,8.6,-0.8,30.02,SSE,150,0.0,0.0,65,0.00,,,0.00,Wunderground v.1.15,2013-01-04 00:56:00,
2013-01-03 20:02:00,8.6,-1.1,30.02,SSE,150,0.0,0.0,64,0.00,,,0.00,Wunderground v.1.15,2013-01-04 01:02:00,
2013-01-03 20:07:00,8.4,-1.0,30.02,SSE,150,0.0,0.0,65,0.00,,,0.00,Wunderground v.1.15,2013-01-04 01:07:00,
2013-01-03 20:12:00,8.4,-1.0,30.02,SSE,150,0.0,0.0,65,0.00,,,0.00,Wunderground v.1.15,2013-01-04 01:12:00,
2013-01-03 20:17:00,8.3,-1.1,30.02,SSE,150,0.0,0.0,65,0.00,,,0.00,Wunderground v.1.15,2013-01-04 01:17:00,
2013-01-03 20:22:00,8.3,-1.4,30.02,SSE,150,0.0,0.0,64,0.00,,,0.00,Wunderground v.1.15,2013-01-04 01:22:00,
2013-01-03 20:28:00,8.1,-1.6,30.03,SSE,150,0.0,0.0,64,0.00,,,0.00,Wunderground v.1.15,2013-01-04 01:28:00,
2013-01-03 20:33:00,7.9,-1.8,30.03,SSE,150,0.0,0.0,64,0.00,,,0.00,Wunderground v.1.15,2013-01-04 01:33:00,
2013-01-03 20:38:00,7.9,-1.8,30.03,SSE,150,0.0,0.0,64,0.00,,,0.00,Wunderground v.1.15,2013-01-04 01:38:00,
2013-01-03 20:43:00,7.6,-2.1,30.02,SSE,150,0.0,0.0,64,0.00,,,0.00,Wunderground v.1.15,2013-01-04 01:43:00,
2013-01-03 20:48:00,7.4,-1.9,30.02,SSE,150,0.0,0.0,65,0.00,,,0.00,Wunderground v.1.15,2013-01-04 01:48:00,
2013-01-03 20:53:00,7.4,-1.6,30.02,SSE,150,0.0,0.0,66,0.00,,,0.00,Wunderground v.1.15,2013-01-04 01:53:00,
2013-01-03 20:58:00,7.2,-1.5,30.02,SSE,150,0.0,0.0,67,0.00,,,0.00,Wunderground v.1.15,2013-01-04 01:58:00,
2013-01-03 21:04:00,7.0,-1.7,30.02,SSE,150,0.0,0.0,67,0.00,,,0.00,Wunderground v.1.15,2013-01-04 02:04:00,
2013-01-03 21:09:00,7.0,-1.7,30.02,SSE,150,0.0,0.0,67,0.00,,,0.00,Wunderground v.1.15,2013-01-04 02:09:00,
2013-01-03 21:14:00,6.7,-1.9,30.02,SSE,150,0.0,0.0,67,0.00,,,0.00,Wunderground v.1.15,2013-01-04 02:14:00,
2013-01-03 21:19:00,6.5,-1.8,30.02,SSE,150,0.0,0.0,68,0.00,,,0.00,Wunderground v.1.15,2013-01-04 02:19:00,
2013-01-03 21:24:00,6.3,-2.0,30.02,SSE,150,0.0,0.0,68,0.00,,,0.00,Wunderground v.1.15,2013-01-04 02:24:00,
2013-01-03 21:29:00,6.3,-2.0,30.01,SSE,150,0.0,0.0,68,0.00,,,0.00,Wunderground v.1.15,2013-01-04 02:29:00,
2013-01-03 21:35:00,6.1,-2.2,30.01,SSE,150,0.0,0.0,68,0.00,,,0.00,Wunderground v.1.15,2013-01-04 02:35:00,
2013-01-03 21:40:00,6.0,-2.3,30.01,SSE,150,0.0,0.0,68,0.00,,,0.00,Wunderground v.1.15,2013-01-04 02:40:00,
2013-01-03 21:45:00,5.8,-2.2,30.01,SSE,150,0.0,0.0,69,0.00,,,0.00,Wunderground v.1.15,2013-01-04 02:45:00,
2013-01-03 21:50:00,5.6,-2.4,30.01,SSE,150,0.0,0.0,69,0.00,,,0.00,Wunderground v.1.15,2013-01-04 02:50:00,
2013-01-03 21:55:00,5.4,-2.6,30.01,SSE,150,0.0,0.0,69,0.00,,,0.00,Wunderground v.1.15,2013-01-04 02:55:00,
2013-01-03 22:00:00,5.4,-2.6,30.01,SSE,150,0.0,0.0,69,0.00,,,0.00,Wunderground v.1.15,2013-01-04 03:00:00,
2013-01-03 22:05:00,5.2,-2.5,30.01,SSE,150,0.0,0.0,70,0.00,,,0.00,Wunderground v.1.15,2013-01-04 03:05:00,
2013-01-03 22:11:00,4.8,-2.8,30.01,SSE,150,0.0,0.0,70,0.00,,,0.00,Wunderground v.1.15,2013-01-04 03:11:00,
2013-01-03 22:16:00,4.7,-2.9,30.01,SSE,150,0.0,0.0,70,0.00,,,0.00,Wunderground v.1.15,2013-01-04 03:16:00,
2013-01-03 22:21:00,4.7,-2.9,30.01,SSE,150,0.0,0.0,70,0.00,,,0.00,Wunderground v.1.15,2013-01-04 03:21:00,
2013-01-03 22:26:00,4.5,-2.8,30.01,SSE,150,0.0,0.0,71,0.00,,,0.00,Wunderground v.1.15,2013-01-04 03:26:00,
2013-01-03 22:31:00,4.3,-3.0,30.00,SSE,150,0.0,0.0,71,0.00,,,0.00,Wunderground v.1.15,2013-01-04 03:31:00,
2013-01-03 22:36:00,4.1,-3.2,30.00,SSE,150,0.0,0.0,71,0.00,,,0.00,Wunderground v.1.15,2013-01-04 03:36:00,
2013-01-03 22:41:00,3.9,-3.4,30.00,SSE,150,0.0,0.0,71,0.00,,,0.00,Wunderground v.1.15,2013-01-04 03:41:00,
2013-01-03 22:46:00,3.7,-3.3,30.00,SSE,150,0.0,0.0,72,0.00,,,0.00,Wunderground v.1.15,2013-01-04 03:46:00,
2013-01-03 22:51:00,3.5,-3.5,30.00,SSE,150,0.0,0.0,72,0.00,,,0.00,Wunderground v.1.15,2013-01-04 03:51:00,
2013-01-03 22:56:00,3.5,-3.5,30.00,SSE,150,0.0,0.0,72,0.00,,,0.00,Wunderground v.1.15,2013-01-04 03:56:00,
2013-01-03 23:01:00,3.4,-3.6,30.00,SSE,150,0.0,0.0,72,0.00,,,0.00,Wunderground v.1.15,2013-01-04 04:01:00,
2013-01-03 23:07:00,3.2,-3.8,30.00,SSE,150,0.0,0.0,72,0.00,,,0.00,Wunderground v.1.15,2013-01-04 04:07:00,
2013-01-03 23:12:00,3.0,-3.7,29.99,SSE,150,0.0,0.0,73,0.00,,,0.00,Wunderground v.1.15,2013-01-04 04:12:00,
2013-01-03 23:17:00,2.8,-3.6,29.99,SSE,150,0.0,0.0,74,0.00,,,0.00,Wunderground v.1.15,2013-01-04 04:17:00,
2013-01-03 23:22:00,2.8,-3.6,29.99,SSE,150,0.0,0.0,74,0.00,,,0.00,Wunderground v.1.15,2013-01-04 04:22:00,
2013-01-03 23:27:00,2.6,-3.8,29.98,SSE,150,0.0,0.0,74,0.00,,,0.00,Wunderground v.1.15,2013-01-04 04:27:00,
2013-01-03 23:33:00,2.6,-3.8,29.98,SSE,150,0.0,0.0,74,0.00,,,0.00,Wunderground v.1.15,2013-01-04 04:33:00,
2013-01-03 23:38:00,2.4,-4.0,29.98,SSE,150,0.0,0.0,74,0.00,,,0.00,Wunderground v.1.15,2013-01-04 04:38:00,
2013-01-03 23:43:00,2.4,-4.0,29.97,SSE,150,0.0,0.0,74,0.00,,,0.00,Wunderground v.1.15,2013-01-04 04:43:00,
2013-01-03 23:48:00,2.2,-4.2,29.97,SSE,150,0.0,0.0,74,0.00,,,0.00,Wunderground v.1.15,2013-01-04 04:48:00,
2013-01-03 23:53:00,2.2,-3.9,29.97,SSE,150,0.0,0.0,75,0.00,,,0.00,Wunderground v.1.15,2013-01-04 04:53:00,
2013-01-03 23:59:00,2.0,-4.1,29.97,SSE,150,0.0,0.0,75,0.00,,,0.00,Wunderground v.1.15,2013-01-04 04:59:00,